Regional Weather Roundup
Issued by NWS Northern Indiana

Home | Current Version | Previous Version | Graphics & Text | Print | Product List | Glossary On
Versions: 1 2 3 4 5 6 7 8 9 10 11 12 13 14 15 16 17 18 19 20 21 22 23 24 25 26 27 28 29 30 31 32 33 34 35 36 37 38 39 40 41 42 43 44 45 46 47 48 49 50
170
ASUS43 KIWX 051610
RWRIWX

KIWX WEATHER ROUNDUP
NATIONAL WEATHER SERVICE NORTHERN INDIANA
1100 AM EST FRI FEB 05 2016

NOTE: "FAIR" INDICATES FEW OR NO CLOUDS BELOW 12,000 FEET WITH NO
SIGNIFICANT WEATHER AND/OR OBSTRUCTIONS TO VISIBILITY.

* THESE STATIONS ARE NOT UNDER NWS QUALITY CONTROL. THEY ALSO MAY NOT
  REPORT WEATHER SUCH AS PRECIPITATION OR FOG.

INZ001>027-051700-
NORTHERN INDIANA

CITY           SKY/WX    TMP DP  RH WIND       PRES   REMARKS
GARY*          CLOUDY    32  25  74 W7        30.36R WCI  26
VALPARAISO     CLOUDY    30  26  85 W7        30.35R WCI  23
MICHIGAN CITY* CLOUDY    30  27  86 SW5       30.35R WCI  25
LAPORTE*       PTSUNNY   32  28  88 W7        30.35R WCI  25
SOUTH BEND     CLOUDY    29  23  78 SW8       30.34R WCI  21
ELKHART*         N/A     30  23  74 MISG      30.34R
GOSHEN         SUNNY     31  22  69 SW9       30.33S WCI  23
MONTICELLO*    PTSUNNY   31  23  72 W7        30.37R WCI  25
LOGANSPORT*    MOSUNNY   32  21  64 W10       30.37R WCI  24
ROCHESTER*     MOSUNNY   32  21  64 SW10      30.35S WCI  24
WARSAW*        MOSUNNY   32  23  69 SW5       30.34S WCI  27
ANGOLA*        SUNNY     30  23  74 SW7       30.32S WCI  23
FORT WAYNE     MOSUNNY   33  22  63 SW12      30.36F WCI  24
HUNTINGTON*    SUNNY     33  18  55 SW8       30.36R WCI  25
PERU/GRISSOM   PTSUNNY   32  23  71 W12       30.34R WCI  23
MARION*        SUNNY     32  16  51 SW12      30.37S WCI  23

$$
INZ028>050-051700-
CENTRAL INDIANA

CITY           SKY/WX    TMP DP  RH WIND       PRES   REMARKS
LAFAYETTE      PTSUNNY   31  25  78 W7        30.38R WCI  24
KOKOMO*        MOSUNNY   34  19  55 W12       30.36R WCI  25
MUNCIE*        SUNNY     36  18  48 S10       30.36F
INDIANAPOLIS   MOSUNNY   33  20  58 S9        30.37S WCI  25

$$
MIZ043>046-050>051-056>058-064>065-071>073-077>080-051700-
SOUTHWEST LOWER MICHIGAN

CITY           SKY/WX    TMP DP  RH WIND       PRES   REMARKS
BATTLE CREEK   PTSUNNY   28  21  75 S6        30.32S WCI  22
BENTON HARBOR  CLOUDY    31  25  78 SW6       30.34R WCI  25
COLDWATER*     SUNNY     30  21  69 S3        30.32F
HILLSDALE*     MOSUNNY   29  20  71 SW7       30.32S WCI  21
HOLLAND        CLOUDY    30  26  85 S6        30.32S WCI  24
GRAND RAPIDS   LGT SNOW  29  24  82 SW5       30.31S WCI  24
KALAMAZOO      MOSUNNY   29  21  72 SW7       30.33R WCI  22
STURGIS*       SUNNY     29  22  73 SW7       30.32S WCI  22
THREE RIVERS*  PTSUNNY   30  23  74 SW6       30.33S WCI  24

$$
OHZ001>008-015>018-024>025-051700-
NORTHWEST OHIO

CITY           SKY/WX    TMP DP  RH WIND       PRES   REMARKS
DEFIANCE       SUNNY     34  21  59 S9        30.37S WCI  27
FINDLAY        SUNNY     33  23  66 S7        30.38S WCI  27
TOLEDO EXPRESS SUNNY     31  20  63 S6        30.37S WCI  25
TOLEDO METCALF SUNNY     32  22  66 SW9       30.39S WCI  24
LIMA           SUNNY     31  22  69 S7        30.38S WCI  24

$$
AND FOR LAKE MICHIGAN COASTAL AND OPEN LAKE BUOY OBSERVATIONS

STATION/POSITION TEMP    WIND        PRES    VSBY  WAVE
                 AIR SEA DIR/SP/G                  HT/PER
                 (F)     (DEG/KT/KT) (MB)    (MI)  (FT/S)
CALUMET HARBOR    30     290/  5/  9 1026.7R
MICHIGAN CITY     28     200/  6/  6   N/A
BURNS HARBOR      30     280/  7/  9 1027.8R
SAINT JOSEPH      30     180/  9/ 13 1027.8R

$$
&&




USA.gov is the U.S. government's official web portal to all federal, state and local government web resources and services.